• In Germany
  • List of Countries
  • For 7 days
  • Water Temperature
  • Satellite Maps
  • Weather Map
  • Weather Widgets
  • user-avatar
    Login

    Hourly Weather Isakovschina

    Today, 23 June, Saturday

    Time Temperature Precipitation Wind Pressure Humidity
    00:00 +9°C° 0 mm 3 mps 754 mmHg 87%
    01:00 +9°C° 0 mm 3 mps 755 mmHg 90%
    02:00 +8°C° 0 mm 2 mps 755 mmHg 96%
    03:00 +8°C° 0 mm 2 mps 755 mmHg 93%
    04:00 +9°C° 0 mm 3 mps 755 mmHg 90%
    05:00 +10°C° 0 mm 3 mps 755 mmHg 88%
    06:00 +11°C° 0 mm 3 mps 755 mmHg 80%
    07:00 +13°C° 0 mm 3 mps 755 mmHg 72%
    08:00 +16°C° 0 mm 3 mps 756 mmHg 63%
    09:00 +17°C° 0 mm 3 mps 756 mmHg 58%
    10:00 +18°C° 0 mm 3 mps 756 mmHg 52%
    11:00 +19°C° 0 mm 3 mps 756 mmHg 47%
    12:00 +19°C° 0 mm 3 mps 756 mmHg 46%
    13:00 +20°C° 0 mm 2 mps 755 mmHg 45%
    14:00 +20°C° 0 mm 2 mps 755 mmHg 44%
    15:00 +20°C° 0 mm 2 mps 755 mmHg 45%
    16:00 +20°C° 0 mm 2 mps 755 mmHg 47%
    17:00 +21°C° 0 mm 1 mps 755 mmHg 48%
    18:00 +20°C° 0 mm 1 mps 755 mmHg 55%
    19:00 +19°C° 0 mm 1 mps 755 mmHg 62%
    20:00 +15°C° 0 mm 0 mps 755 mmHg 68%
    21:00 +14°C° 0 mm 0 mps 755 mmHg 70%
    22:00 +13°C° 0 mm 0 mps 755 mmHg 71%
    23:00 +13°C° 0 mm 0 mps 754 mmHg 73%

    Tomorrow, 24 June, Sunday

    Time Temperature Precipitation Wind Pressure Humidity
    00:00 +13°C° 0 mm 1 mps 754 mmHg 73%
    01:00 +13°C° 0 mm 1 mps 754 mmHg 74%
    02:00 +13°C° 0 mm 2 mps 754 mmHg 74%
    03:00 +13°C° 0 mm 2 mps 754 mmHg 75%
    04:00 +12°C° 0 mm 3 mps 753 mmHg 76%
    05:00 +12°C° 0 mm 3 mps 753 mmHg 76%
    06:00 +12°C° 0.2 mm 3 mps 753 mmHg 78%
    07:00 +12°C° 0.2 mm 3 mps 753 mmHg 79%
    08:00 +12°C° 0.2 mm 3 mps 752 mmHg 81%
    09:00 +12°C° 0.1 mm 4 mps 752 mmHg 79%
    10:00 +13°C° 0.1 mm 4 mps 752 mmHg 78%
    11:00 +13°C° 0.1 mm 5 mps 752 mmHg 77%
    12:00 +13°C° 2 mm 5 mps 751 mmHg 82%
    13:00 +12°C° 2 mm 5 mps 751 mmHg 86%
    14:00 +12°C° 2 mm 5 mps 751 mmHg 91%
    15:00 +12°C° 2.3 mm 5 mps 751 mmHg 93%
    16:00 +10°C° 2.3 mm 5 mps 751 mmHg 95%
    17:00 +10°C° 2.3 mm 6 mps 751 mmHg 96%
    18:00 +10°C° 0.9 mm 5 mps 751 mmHg 96%
    19:00 +12°C° 0.9 mm 5 mps 751 mmHg 97%
    20:00 +12°C° 0.9 mm 4 mps 751 mmHg 97%
    21:00 +11°C° 0.7 mm 4 mps 751 mmHg 97%
    22:00 +11°C° 0.7 mm 4 mps 751 mmHg 97%
    23:00 +11°C° 0.7 mm 4 mps 751 mmHg 97%

    Day after tomorrow, 25 June, Monday

    Time Temperature Precipitation Wind Pressure Humidity
    00:00 +11°C° 0.3 mm 4 mps 751 mmHg 97%
    01:00 +11°C° 0.3 mm 4 mps 752 mmHg 97%
    02:00 +9°C° 0.3 mm 5 mps 752 mmHg 97%
    03:00 +9°C° 0.1 mm 5 mps 752 mmHg 96%
    04:00 +9°C° 0.1 mm 5 mps 752 mmHg 96%
    05:00 +9°C° 0.1 mm 5 mps 753 mmHg 96%
    06:00 +9°C° 0 mm 5 mps 753 mmHg 93%
    07:00 +10°C° 0 mm 5 mps 754 mmHg 91%
    08:00 +10°C° 0 mm 5 mps 754 mmHg 88%
    09:00 +12°C° 0 mm 5 mps 754 mmHg 83%
    10:00 +13°C° 0 mm 5 mps 755 mmHg 77%
    11:00 +14°C° 0 mm 5 mps 755 mmHg 72%
    12:00 +15°C° 0 mm 5 mps 755 mmHg 67%
    13:00 +17°C° 0 mm 4 mps 756 mmHg 63%
    14:00 +19°C° 0 mm 4 mps 756 mmHg 58%
    15:00 +19°C° 0.1 mm 3 mps 756 mmHg 62%
    16:00 +18°C° 0.1 mm 3 mps 756 mmHg 65%
    17:00 +18°C° 0.1 mm 2 mps 756 mmHg 69%
    18:00 +17°C° 0.3 mm 2 mps 757 mmHg 75%
    19:00 +16°C° 0.3 mm 2 mps 757 mmHg 82%
    20:00 +15°C° 0.3 mm 2 mps 757 mmHg 89%
    21:00 +14°C° 0 mm 2 mps 758 mmHg 91%
    22:00 +13°C° 0 mm 2 mps 758 mmHg 93%
    23:00 +12°C° 0 mm 2 mps 759 mmHg 96%

    26 June, Tuesday

    Time Temperature Precipitation Wind Pressure Humidity
    00:00 +12°C° 0 mm 2 mps 759 mmHg 96%
    01:00 +10°C° 0 mm 2 mps 759 mmHg 97%
    02:00 +11°C° 0 mm 1 mps 760 mmHg 97%
    03:00 +11°C° 0 mm 1 mps 760 mmHg 97%
    04:00 +11°C° 0 mm 1 mps 760 mmHg 97%
    05:00 +12°C° 0 mm 1 mps 761 mmHg 96%
    06:00 +13°C° 0 mm 2 mps 761 mmHg 92%
    07:00 +15°C° 0 mm 2 mps 761 mmHg 87%
    08:00 +16°C° 0 mm 2 mps 762 mmHg 83%
    09:00 +17°C° 0 mm 2 mps 762 mmHg 76%
    10:00 +19°C° 0 mm 2 mps 762 mmHg 70%
    11:00 +20°C° 0 mm 2 mps 762 mmHg 64%
    12:00 +20°C° 0.2 mm 2 mps 762 mmHg 63%
    13:00 +21°C° 0.2 mm 2 mps 762 mmHg 63%
    14:00 +22°C° 0.2 mm 1 mps 763 mmHg 63%
    15:00 +22°C° 0.3 mm 1 mps 763 mmHg 63%
    16:00 +22°C° 0.3 mm 1 mps 763 mmHg 64%
    17:00 +22°C° 0.3 mm 1 mps 763 mmHg 65%
    18:00 +21°C° 0.1 mm 1 mps 763 mmHg 71%
    19:00 +20°C° 0.1 mm 1 mps 763 mmHg 77%
    20:00 +19°C° 0.1 mm 1 mps 763 mmHg 83%
    21:00 +16°C° 0 mm 1 mps 764 mmHg 86%
    22:00 +15°C° 0 mm 1 mps 764 mmHg 89%
    23:00 +13°C° 0 mm 0 mps 764 mmHg 92%

    27 June, Wednesday

    Time Temperature Precipitation Wind Pressure Humidity
    00:00 +13°C° 0 mm 0 mps 764 mmHg 93%
    01:00 +12°C° 0 mm 0 mps 765 mmHg 93%
    02:00 +12°C° 0 mm 0 mps 765 mmHg 93%
    03:00 +12°C° 0 mm 0 mps 765 mmHg 93%
    04:00 +13°C° 0 mm 0 mps 765 mmHg 92%
    05:00 +13°C° 0 mm 0 mps 765 mmHg 91%
    06:00 +15°C° 0 mm 0 mps 766 mmHg 84%
    07:00 +17°C° 0 mm 0 mps 766 mmHg 77%
    08:00 +20°C° 0 mm 0 mps 766 mmHg 69%
    09:00 +21°C° 0 mm 0 mps 766 mmHg 63%
    10:00 +23°C° 0 mm 0 mps 766 mmHg 57%
    11:00 +26°C° 0 mm 1 mps 766 mmHg 50%
    12:00 +26°C° 0 mm 1 mps 766 mmHg 48%
    13:00 +27°C° 0 mm 1 mps 766 mmHg 46%
    14:00 +27°C° 0 mm 1 mps 766 mmHg 44%
    15:00 +27°C° 0 mm 1 mps 766 mmHg 45%
    16:00 +26°C° 0 mm 2 mps 766 mmHg 47%
    17:00 +26°C° 0 mm 2 mps 766 mmHg 48%
    18:00 +24°C° 0 mm 2 mps 766 mmHg 56%
    19:00 +23°C° 0 mm 2 mps 766 mmHg 64%
    20:00 +20°C° 0 mm 2 mps 766 mmHg 72%
    21:00 +19°C° 0 mm 2 mps 766 mmHg 74%
    22:00 +17°C° 0 mm 2 mps 767 mmHg 77%
    23:00 +16°C° 0 mm 2 mps 767 mmHg 79%

    28 June, Thursday

    Time Temperature Precipitation Wind Pressure Humidity
    00:00 +16°C° 0 mm 2 mps 767 mmHg 80%
    01:00 +15°C° 0 mm 2 mps 767 mmHg 81%
    02:00 +14°C° 0 mm 2 mps 767 mmHg 82%
    03:00 +15°C° 0 mm 2 mps 768 mmHg 81%
    04:00 +15°C° 0 mm 2 mps 768 mmHg 81%
    05:00 +15°C° 0 mm 2 mps 768 mmHg 80%
    06:00 +17°C° 0 mm 2 mps 768 mmHg 73%
    07:00 +19°C° 0 mm 2 mps 768 mmHg 67%
    08:00 +21°C° 0 mm 2 mps 768 mmHg 60%
    09:00 +23°C° 0 mm 2 mps 768 mmHg 55%
    10:00 +25°C° 0 mm 2 mps 768 mmHg 50%
    11:00 +27°C° 0 mm 3 mps 768 mmHg 45%
    12:00 +27°C° 0 mm 3 mps 767 mmHg 43%
    13:00 +28°C° 0 mm 3 mps 767 mmHg 41%
    14:00 +28°C° 0 mm 3 mps 767 mmHg 39%
    15:00 +28°C° 0 mm 3 mps 767 mmHg 40%
    16:00 +27°C° 0 mm 4 mps 766 mmHg 42%
    17:00 +27°C° 0 mm 4 mps 766 mmHg 43%
    18:00 +25°C° 0 mm 4 mps 766 mmHg 48%
    19:00 +22°C° 0 mm 4 mps 766 mmHg 54%
    20:00 +21°C° 0 mm 4 mps 766 mmHg 60%
    21:00 +19°C° 0 mm 4 mps 766 mmHg 58%
    22:00 +18°C° 0 mm 4 mps 766 mmHg 56%
    23:00 +15°C° 0 mm 4 mps 766 mmHg 53%
    Show more